sat.trackr.live / text

‹ back to catalog

STARLINK-33771

NORAD 63659 · 2025-083AB

PAYLOAD ACTIVE UNKNOWN

§ Identity

Operator
Country
US
Launch date
2025-04-25
Launch site
AFETR
Launch vehicle
Mass (kg)
RCS (m²)

Purposes: comms

External: N2YO · Heavens-Above · Gunter

§ Orbital elements

Epoch: 2026-05-24T20:00:25.933536Z

Period
94.27 min
Inclination
42.9955°
Eccentricity
0.0002800
Mean motion
15.27591980 rev/d
Perigee alt
481.1 km
Apogee alt
484.9 km
Semi-major
6,861.2 km
B*
6.3168e-4
RAAN
298.5926°
Arg perigee
256.7843°
Mean anomaly
103.2697°
Rev number
6,170

§ Raw data

STARLINK-337711 63659U 25083AB  26144.83363349  .00017168  00000+0  63168-3 0  99922 63659  42.9955 298.5926 0002800 256.7843 103.2697 15.27591980 61700

JSON: /api/v1/satellites/63659 · /tle

For live sub-satellite position, see the globe view (requires WebGL).

§ Visibility from observer

Set your observer location to see the next 7 days of passes ≥ 10°. The values pass through the URL so the page stays shareable.

No JS? Fill the form by hand. The geolocation button needs JavaScript.